Weather reports worldwide

Advertisment
Blencathra, United Kingdom (99143): temperature & dewpoint: 23.09.2020 02:00:00 - 29.09.2020 02:00:00 (BST)Blencathra, United Kingdom (99143): precipitation: 23.09.2020 02:00:00 - 29.09.2020 02:00:00 (BST)
Date & Time tt [°C] td [°C] rr [mm]
29.09.2020 02:00:00 - - -
29.09.2020 01:00:00 7,8 7,1 0,0
29.09.2020 00:00:00 8,3 6,7 0,0
28.09.2020 23:00:00 9,4 8,0 0,0
28.09.2020 22:00:00 10,3 9,2 0,2
28.09.2020 21:00:00 10,0 9,3 0,0
28.09.2020 20:00:00 10,5 9,8 0,0
28.09.2020 19:00:00 11,3 9,6 0,4
28.09.2020 18:00:00 12,2 11,9 0,8
28.09.2020 17:00:00 12,4 12,0 -
28.09.2020 16:00:00 12,2 10,9 0,0
28.09.2020 15:00:00 12,2 10,7 0,0
28.09.2020 14:00:00 11,1 9,7 0,0
28.09.2020 13:00:00 11,6 9,6 0,0
28.09.2020 12:00:00 11,1 8,9 0,0
28.09.2020 11:00:00 10,6 7,8 0,0
28.09.2020 10:00:00 9,3 6,3 0,0
28.09.2020 09:00:00 9,0 4,9 0,0
28.09.2020 08:00:00 7,8 4,6 0,0
28.09.2020 07:00:00 7,1 4,2 0,0
28.09.2020 06:00:00 7,5 4,4 0,0
28.09.2020 05:00:00 6,2 4,2 0,0
28.09.2020 04:00:00 6,1 4,2 0,0
28.09.2020 03:00:00 6,1 4,3 0,0
28.09.2020 02:00:00 5,7 4,0 0,0
28.09.2020 01:00:00 5,3 3,7 0,0
28.09.2020 00:00:00 4,8 3,1 0,0
27.09.2020 23:00:00 5,6 3,6 0,0
27.09.2020 22:00:00 6,2 3,7 0,0
27.09.2020 21:00:00 6,5 3,7 0,0
27.09.2020 20:00:00 7,0 3,8 0,0
27.09.2020 19:00:00 8,1 4,0 0,0
27.09.2020 18:00:00 10,8 4,8 0,0
27.09.2020 17:00:00 12,8 4,1 0,0
27.09.2020 16:00:00 12,9 2,9 0,0
27.09.2020 15:00:00 11,6 3,5 0,0
27.09.2020 14:00:00 11,2 3,4 0,0
27.09.2020 13:00:00 10,2 3,0 0,0
27.09.2020 12:00:00 9,5 4,4 0,0
27.09.2020 11:00:00 8,7 4,0 0,0
27.09.2020 10:00:00 7,8 3,7 0,0
27.09.2020 09:00:00 7,1 3,3 0,0
27.09.2020 08:00:00 5,1 2,3 0,0
27.09.2020 07:00:00 4,4 1,9 0,0
27.09.2020 06:00:00 5,1 2,0 0,0
27.09.2020 05:00:00 4,7 1,7 0,0
27.09.2020 04:00:00 5,4 2,2 0,0
27.09.2020 03:00:00 5,6 2,4 0,0
27.09.2020 02:00:00 5,6 2,2 0,0
27.09.2020 01:00:00 6,5 2,3 0,0
27.09.2020 00:00:00 7,2 2,7 0,0
26.09.2020 23:00:00 7,5 2,9 0,0
26.09.2020 22:00:00 7,8 3,4 0,0
26.09.2020 21:00:00 8,6 3,5 0,0
26.09.2020 20:00:00 8,8 2,7 0,0
26.09.2020 19:00:00 9,9 3,2 0,0
26.09.2020 18:00:00 10,4 3,3 0,0
26.09.2020 17:00:00 11,1 4,2 0,0
26.09.2020 16:00:00 10,6 4,3 0,0
26.09.2020 15:00:00 10,2 3,9 0,0
26.09.2020 14:00:00 9,8 3,8 0,0
26.09.2020 13:00:00 9,7 3,7 0,0
26.09.2020 12:00:00 8,6 4,0 0,0
26.09.2020 11:00:00 7,4 2,5 0,0
26.09.2020 10:00:00 6,8 1,7 0,0
26.09.2020 09:00:00 5,0 0,8 0,0
26.09.2020 08:00:00 3,8 0,2 0,0
26.09.2020 07:00:00 2,9 -0,6 0,0
26.09.2020 06:00:00 2,9 -0,2 0,0
26.09.2020 05:00:00 3,1 -0,4 0,0
26.09.2020 04:00:00 2,9 -0,7 0,0
26.09.2020 03:00:00 3,7 -1,2 0,0
26.09.2020 02:00:00 4,7 -0,8 0,0
26.09.2020 01:00:00 5,0 0,4 0,0
26.09.2020 00:00:00 5,6 0,7 0,0
25.09.2020 23:00:00 6,4 1,4 0,0
25.09.2020 22:00:00 7,7 2,9 0,0
25.09.2020 21:00:00 8,3 3,1 0,0
25.09.2020 20:00:00 9,0 2,9 0,0
25.09.2020 19:00:00 9,1 4,7 0,0
25.09.2020 18:00:00 9,6 4,6 0,0
25.09.2020 17:00:00 10,1 5,9 0,0
25.09.2020 16:00:00 10,9 4,8 0,0
25.09.2020 15:00:00 10,4 5,0 0,0
25.09.2020 14:00:00 10,6 4,8 0,0
25.09.2020 13:00:00 10,2 5,7 0,0
25.09.2020 12:00:00 9,9 6,0 0,0
25.09.2020 11:00:00 8,8 4,8 0,0
25.09.2020 10:00:00 7,2 4,2 0,0
25.09.2020 09:00:00 6,5 3,5 0,0
25.09.2020 08:00:00 5,1 2,6 0,0
25.09.2020 07:00:00 4,9 2,5 0,0
25.09.2020 06:00:00 5,3 2,4 0,0
25.09.2020 05:00:00 5,3 2,4 0,0
25.09.2020 04:00:00 5,9 2,8 0,0
25.09.2020 03:00:00 6,2 3,3 0,0
25.09.2020 02:00:00 6,2 3,0 0,0
25.09.2020 01:00:00 7,1 3,3 0,0
25.09.2020 00:00:00 7,2 3,9 0,0
24.09.2020 23:00:00 7,1 3,2 0,2
24.09.2020 22:00:00 6,9 4,3 0,2
24.09.2020 21:00:00 6,8 4,0 0,2
24.09.2020 20:00:00 6,7 4,6 0,4
24.09.2020 19:00:00 6,6 4,5 0,4
24.09.2020 18:00:00 7,2 5,5 0,2
24.09.2020 17:00:00 8,1 5,3 0,0
24.09.2020 16:00:00 8,4 6,0 0,0
24.09.2020 15:00:00 8,1 6,2 0,2
24.09.2020 14:00:00 8,3 6,0 0,0
24.09.2020 13:00:00 8,6 6,4 0,0
24.09.2020 12:00:00 7,3 5,5 0,2
24.09.2020 11:00:00 6,4 4,7 0,4
24.09.2020 10:00:00 6,8 4,1 0,0
24.09.2020 09:00:00 6,0 4,1 0,0
24.09.2020 08:00:00 6,4 3,9 0,0
24.09.2020 07:00:00 3,1 2,5 0,0
24.09.2020 06:00:00 4,7 3,9 0,0
24.09.2020 05:00:00 3,8 2,4 0,0
24.09.2020 04:00:00 4,6 4,0 0,0
24.09.2020 03:00:00 4,8 3,8 0,2
24.09.2020 02:00:00 5,3 4,5 0,0
24.09.2020 01:00:00 5,7 4,5 0,0
24.09.2020 00:00:00 5,8 4,5 0,0
23.09.2020 23:00:00 6,2 4,7 0,0
23.09.2020 22:00:00 7,1 6,2 0,0
23.09.2020 21:00:00 7,7 5,7 0,2
23.09.2020 20:00:00 7,9 5,6 0,0
23.09.2020 19:00:00 7,7 6,3 0,0
23.09.2020 18:00:00 8,3 6,6 0,0
23.09.2020 17:00:00 9,2 7,2 0,4
23.09.2020 16:00:00 10,1 6,5 0,0
23.09.2020 15:00:00 10,4 6,7 0,0
23.09.2020 14:00:00 10,6 7,3 0,0
23.09.2020 13:00:00 10,3 7,4 0,0
23.09.2020 12:00:00 10,5 8,6 0,0
23.09.2020 11:00:00 9,6 8,8 0,0
23.09.2020 10:00:00 8,4 7,7 0,0
23.09.2020 09:00:00 8,5 8,0 0,0
23.09.2020 08:00:00 8,3 7,8 0,2
23.09.2020 07:00:00 8,9 8,1 0,2
23.09.2020 06:00:00 9,1 8,2 0,6
23.09.2020 05:00:00 9,9 8,0 0,0
23.09.2020 04:00:00 10,0 9,3 0,0
23.09.2020 03:00:00 10,1 9,8 0,4
23.09.2020 02:00:00 10,4 9,5 0,8

tt = temperature
td = dewpoint
rr = precipitation

Next stations